NOAA NWS Hourly Roundups by Site

Regional Weather Roundup for Green Bay, WI

To Select Another Site Choose from List

Select Site:  

000
ASUS43 KGRB 040510
RWRGRB

NORTH-CENTRAL AND NORTHEAST WISCONSIN REGIONAL WEATHER ROUNDUP
NATIONAL WEATHER SERVICE GREEN BAY WI
1100 PM CST FRI FEB 03 2023

WIZ005-009-010>012-018-019-040600-
NORTH CENTRAL WISCONSIN

CITY           SKY/WX    TMP DP  RH WIND       PRES   REMARKS
IRONWOOD       CLOUDY     3 -12  49 S15       30.13F WCI -16
MANITOWISH WTR CLOUDY     0 -14  53 S10G17    30.15F WCI -17
ARBOR VITAE    CLOUDY     0 -12  55 S9G16     30.18F WCI -15
EAGLE RIVER    CLOUDY     1 -12  53 S6        30.19F WCI -10
LAND O LAKES   CLOUDY     2 -11  53 S7        30.19F WCI -10
RHINELANDER    CLOUDY     1 -13  51 S8        30.20F WCI -13
PHILLIPS       CLOUDY     0 -13  52 S12       30.19F WCI -17
ANTIGO         CLOUDY     1 -11  59 S12       30.26F WCI -16
TOMAHAWK       CLOUDY     2 -10  55 CALM      30.22F
MERRILL        CLOUDY     2 -12  51 S3        30.26F
$$

WIZ013-073-040600-
NORTHEAST WISCONSIN

CITY           SKY/WX    TMP DP  RH WIND       PRES   REMARKS
IRON MOUNTAIN  CLOUDY     3  -9  57 S8        30.28F WCI -10
MARINETTE      CLOUDY     5  -5  63 MISG      30.41F
OCONTO         CLOUDY     5  -7  59 SW7       30.41F WCI  -7
$$

WIZ017-030-035>037-045-040600-
CENTRAL WISCONSIN

CITY           SKY/WX    TMP DP  RH WIND       PRES   REMARKS
MEDFORD        CLOUDY     2 -10  56 S13       30.22F WCI -16
WAUSAU         CLOUDY     4 -11  50 SE9       30.27F WCI -10
MOSINEE        CLOUDY     3  -9  55 S7        30.29F WCI  -9
MARSHFIELD     CLOUDY     4  -9  55 S14G21    30.25F WCI -14
WISC RAPIDS    MOCLDY     4 -11  50 S8        30.32F WCI  -9
STEVENS POINT  CLOUDY     6 -12  43 S7        30.32F WCI  -6
WAUPACA        CLOUDY     6  -6  55 SE9       30.37F WCI  -7
SHAWANO        NOT AVBL
CLINTONVILLE   CLOUDY     4  -9  55 S10       30.39F WCI -12
WAUTOMA        CLOUDY     4  -7  60 SE10      30.36F WCI -11
$$

WIZ038-039-048-051-040600-
FOX VALLEY

CITY           SKY/WX    TMP DP  RH WIND       PRES   REMARKS
NWS GREEN BAY  CLOUDY     5  -7  57 S12G20    30.40F WCI -11
APPLETON       CLOUDY     5  -8  56 S9        30.37F WCI  -9
OSHKOSH        CLOUDY     5  -7  57 S14       30.39F WCI -12
FOND DU LAC    CLOUDY     6  -7  54 S10       30.41F WCI  -9
$$

WIZ022-050-052-040600-
EAST CENTRAL WISCONSIN

CITY           SKY/WX    TMP DP  RH WIND       PRES   REMARKS
EPHRAIM        CLOUDY     5  -5  64 SW5       30.38S WCI  -4
WASHINGTON ISL CLOUDY     7   1  76 SW9       30.38F WCI  -6
STURGEON BAY   CLOUDY     5  -6  60 SW10      30.41F WCI -10
MANITOWOC      CLOUDY     6  -5  60 S8        30.42F WCI  -7
SHEBOYGAN      CLOUDY     7  -7  52 SW10      30.42F WCI  -8
$$

LMZ563-521-522-541>543-040600-
LAKESHORE

STATION/POSITION TIME  TEMP    WIND        PRES    VSBY  WAVE
                       AIR SEA DIR/SP/G                  HT/PER
                 (UTC) (F)     (DEG/KT/KT) (MB)    (MI)  (FT/S)
SHEBOYGAN LKSHOR 0500    8     220/ 12/ 14 1032.1F
KEWAUNEE LKSHORE 0430    5     220/  5/  8 1029.7F
NORTHPORT PIER   0400    5     190/  3/  6   N/A
CHAMBERS ISLAND  0440          140/  8/ 15   N/A
GREEN BAY WEST   0430    6     180/  2/  7 1028.7F
MENOMINEE LKSHOR 0430    5 35  180/ 12/ 15 1028.2F
$$


 

View Past Reports for Green Bay, WI.

Products Courtesy of NOAA-NWS
NWS Information Parsing Script by Ken True at Saratoga Weather - Script by SE Lincoln Weather.